Weather History for KMNN - November, 2013

Change the Weather History Date:

Tuesday, November 12, 2013

  Actual Average (KDLZ) Record (KDLZ)
Temperature  
Mean Temperature 28 °F -  
Max Temperature 32 °F 48 °F 72 °F (1945)
Min Temperature 24 °F 32 °F 19 °F (1950)
Degree Days  
Heating Degree Days 37    
Moisture  
Dew Point 22 °F    
Average Humidity 78    
Maximum Humidity 93    
Minimum Humidity 61    
Precipitation  
Precipitation 0.00 in - - ()
Sea Level Pressure  
Sea Level Pressure 30.45 in    
Wind  
Wind Speed 14 mph (NNW)    
Max Wind Speed 21 mph    
Max Gust Speed 29 mph    
Visibility 8 miles    
Events Snow    
Averages and records for this station are not official NWS values.
T = Trace of Precipitation, MM = Missing Value Source: NWS Daily Summary

Daily Weather History Graph

Daily Weather History Graph

Search for Another Location

Airport or City:

Trip Planner

Search our weather history database for the weather conditions in past years. The results will help you decide how hot, cold, wet, or windy it might be!

Date:

Astronomy

Nov. 12, 2013 Rise Set
Actual Time 7:15 AM EST 5:16 PM EST
Civil Twilight 6:46 AM EST 5:45 PM EST
Nautical Twilight 6:13 AM EST 6:18 PM EST
Astronomical Twilight 5:41 AM EST 6:51 PM EST
Moon 2:31 PM EST (11/12) 2:02 AM EST (11/12)
Length of Visible Light 10h 59m
Length of Day
10h 01m
Waxing Gibbous, 76% of the Moon is Illuminated
Nov 12
Waxing Gibbous
Nov 17
Full
Nov 25
Last Quarter
Dec 2
New
Dec 9
First Quarter

Hourly Weather History & Observations

Time (EST) Temp. Windchill Dew Point Humidity Pressure Visibility Wind Dir Wind Speed Gust Speed Precip Events Conditions
12:07 AM 28.4 °F 15.1 °F 26.6 °F 93% 30.26 in 1.0 mi North 20.7 mph - 0.00 in Snow Light Snow
12:13 AM 28.4 °F 15.1 °F 26.6 °F 93% 30.26 in 0.8 mi North 20.7 mph - 0.00 in Snow Light Snow
12:21 AM 28.4 °F 16.2 °F 26.6 °F 93% 30.26 in 1.0 mi North 17.3 mph - 0.00 in Snow Light Snow
12:25 AM 28.4 °F 17.0 °F 26.6 °F 93% 30.26 in 1.2 mi North 15.0 mph - 0.00 in Snow Light Snow
12:32 AM 28.4 °F 15.4 °F 24.8 °F 86% 30.27 in 1.0 mi North 19.6 mph 28.8 mph 0.00 in Snow Light Snow
12:53 AM 28.0 °F 16.1 °F 25.0 °F 88% 30.31 in 1.5 mi North 16.1 mph - 0.00 in Snow Light Snow
1:29 AM 26.6 °F 15.7 °F 24.8 °F 93% 30.29 in 3.0 mi North 12.7 mph - 0.00 in Snow Light Snow
1:36 AM 28.4 °F 19.1 °F 24.8 °F 86% 30.29 in 9.0 mi North 10.4 mph - 0.00 in Snow Light Snow
1:53 AM 28.0 °F 18.6 °F 25.0 °F 88% 30.32 in 10.0 mi NNW 10.4 mph - 0.00 in   Overcast
2:00 AM 26.6 °F 16.8 °F 24.8 °F 93% 30.30 in 10.0 mi NNW 10.4 mph - 0.00 in   Overcast
2:53 AM 27.0 °F 14.3 °F 21.9 °F 81% 30.33 in 10.0 mi North 17.3 mph - 0.00 in   Clear
3:53 AM 27.0 °F 15.2 °F 19.9 °F 75% 30.35 in 10.0 mi North 15.0 mph - 0.00 in   Clear
4:53 AM 26.1 °F 15.0 °F 19.9 °F 78% 30.39 in 10.0 mi NNW 12.7 mph - 0.00 in   Overcast
5:53 AM 26.1 °F 14.5 °F 19.9 °F 78% 30.41 in 10.0 mi NNW 13.8 mph - N/A   Overcast
6:53 AM 24.1 °F 11.5 °F 18.0 °F 77% 30.44 in 10.0 mi NNW 15.0 mph - N/A   Mostly Cloudy
7:53 AM 24.1 °F 13.7 °F 17.1 °F 75% 30.48 in 10.0 mi NNW 10.4 mph - N/A   Overcast
8:53 AM 24.1 °F 13.1 °F 17.1 °F 75% 30.51 in 10.0 mi NNW 11.5 mph - N/A   Overcast
9:53 AM 25.0 °F 13.1 °F 19.0 °F 78% 30.53 in 10.0 mi NNW 13.8 mph - N/A   Clear
10:28 AM 26.6 °F 16.8 °F 19.4 °F 74% 30.49 in 10.0 mi NNW 10.4 mph - N/A   Mostly Cloudy
10:53 AM 26.1 °F 15.6 °F 19.9 °F 78% 30.55 in 10.0 mi NNW 11.5 mph - N/A   Overcast
11:53 AM 28.0 °F 19.3 °F 21.0 °F 75% 30.54 in 10.0 mi NW 9.2 mph - N/A   Scattered Clouds
12:18 PM 28.4 °F 19.1 °F 21.2 °F 74% 30.50 in 10.0 mi NNW 10.4 mph - N/A   Mostly Cloudy
12:53 PM 28.9 °F 19.2 °F 23.0 °F 78% 30.54 in 10.0 mi NNW 11.5 mph - N/A   Mostly Cloudy
1:20 PM 28.4 °F 16.6 °F 21.2 °F 74% 30.49 in 10.0 mi NW 16.1 mph - N/A   Scattered Clouds
1:39 PM 30.2 °F 20.8 °F 21.2 °F 69% 30.49 in 10.0 mi North 11.5 mph - N/A   Mostly Cloudy
1:53 PM 30.0 °F 19.5 °F 21.9 °F 72% 30.54 in 10.0 mi NNW 13.8 mph - N/A   Overcast
2:53 PM 30.9 °F 22.2 °F 21.0 °F 67% 30.55 in 10.0 mi NW 10.4 mph - N/A   Mostly Cloudy
3:27 PM 30.2 °F 21.3 °F 19.4 °F 64% 30.51 in 10.0 mi NNW 10.4 mph - N/A   Scattered Clouds
3:53 PM 32.0 °F 22.1 °F 19.9 °F 61% 30.55 in 10.0 mi NNW 13.8 mph - N/A   Scattered Clouds
4:53 PM 30.0 °F 21.1 °F 21.0 °F 69% 30.56 in 10.0 mi NW 10.4 mph - N/A   Mostly Cloudy
5:53 PM 28.9 °F 22.8 °F 19.9 °F 69% 30.56 in 10.0 mi NW 5.8 mph - N/A   Overcast
6:53 PM 28.0 °F 20.8 °F 21.0 °F 75% 30.56 in 10.0 mi WNW 6.9 mph - N/A   Mostly Cloudy
7:53 PM 28.9 °F 21.1 °F 21.9 °F 75% 30.57 in 8.0 mi WNW 8.1 mph - 0.00 in Snow Light Snow
8:53 PM 28.0 °F 20.0 °F 21.0 °F 75% 30.59 in 10.0 mi WNW 8.1 mph - N/A   Mostly Cloudy
9:53 PM 26.1 °F 18.4 °F 19.9 °F 78% 30.59 in 10.0 mi NW 6.9 mph - N/A   Clear
10:53 PM 26.1 °F 18.4 °F 19.0 °F 75% 30.59 in 10.0 mi WNW 6.9 mph - N/A   Clear
11:53 PM 24.1 °F 18.2 °F 18.0 °F 77% 30.58 in 10.0 mi WNW 4.6 mph - N/A   Clear